sat.trackr.live / text

‹ back to catalog

STARLINK-34647

NORAD 64904 · 2025-157A

PAYLOAD ACTIVE UNKNOWN

§ Identity

Operator
Country
US
Launch date
2025-07-26
Launch site
AFETR
Launch vehicle
Mass (kg)
RCS (m²)

Purposes: comms

External: N2YO · Heavens-Above · Gunter

§ Orbital elements

Epoch: 2026-09-20T05:21:16.468992Z

Period
93.85 min
Inclination
53.1611°
Eccentricity
0.0001286
Mean motion
15.34427796 rev/d
Perigee alt
461.7 km
Apogee alt
463.5 km
Semi-major
6,840.8 km
B*
7.7407e-4
RAAN
158.8318°
Arg perigee
67.9496°
Mean anomaly
292.1644°
Rev number
6,594

§ Raw data

STARLINK-346471 64904U 25157A   26263.22310728  .00025890  00000+0  77407-3 0  99982 64904  53.1611 158.8318 0001286  67.9496 292.1644 15.34427796 65944

JSON: /api/v1/satellites/64904 · /tle

For live sub-satellite position, see the globe view (requires WebGL).

§ Visibility from observer

Set your observer location to see the next 7 days of passes ≥ 10°. The values pass through the URL so the page stays shareable.

No JS? Fill the form by hand. The geolocation button needs JavaScript.